Regional Weather Roundup
Issued by NWS

Home | Current Version | Previous Version | Graphics & Text | Print | Product List | Glossary On
Versions: 1 2 3 4 5 6 7 8 9 10 11 12 13 14 15 16 17 18 19 20 21 22 23 24 25 26 27 28 29 30 31 32 33 34 35 36 37 38 39 40 41 42 43 44 45 46 47 48 49 50
000
ASUS44 KMEG 272000
RWRTN
TENNESSEE HOURLY STATE WEATHER ROUNDUP
NATIONAL WEATHER SERVICE MEMPHIS TN
300 PM CDT WED AUG 27 2014

TNZ002-004-019-021-049-052-054-088>092-272100-
WEST TENNESSEE

CITY           SKY/WX    TMP DP  RH WIND       PRES   REMARKS
MEMPHIS INTL   PTSUNNY   93  64  38 SE10G16   30.06S HX  94
NWS MEMPHIS      N/A     92 N/A N/A MISG        N/A
JACKSON        SUNNY     88  69  53 E7        30.06F HX  92
DYERSBURG      MOSUNNY   90  66  45 SE3       30.06F HX  92
UNION CITY     SUNNY     82  70  65 NE3       30.06F
PARIS          MOSUNNY   90  72  55 SE6       30.06F HX  96
LEXINGTON      MOSUNNY   90  66  45 CALM      30.06F HX  92
SAVANNAH       PTSUNNY   90  66  45 CALM      30.07F HX  92
$$

TNZ008-025-027-028-033-062-065-066-272100-
NORTH MIDDLE TENNESSEE

CITY           SKY/WX    TMP DP  RH WIND       PRES   REMARKS
NASHVILLE      PTSUNNY   90  69  50 E8        30.07F HX  94
CLARKSVILLE    PTSUNNY   81  72  74 S3        30.06F
COOKEVILLE     SUNNY     90  66  45 VRB5      30.08F HX  92
CROSSVILLE     PTSUNNY   83  61  47 N6        30.13F
$$

TNZ061-075-076-078-094-096-097-272100-
SOUTH MIDDLE TENNESSEE

CITY           SKY/WX    TMP DP  RH WIND       PRES   REMARKS
FAYETTEVILLE   MOSUNNY   84  64  51 CALM      30.08F
TULLAHOMA      MOSUNNY   88  63  42 N5        30.09F
WINCHESTER       N/A     86  68  54 NW5       30.08F
COLUMBIA       SUNNY     90  72  55 CALM      30.05F HX  96
SHELBYVILLE    MOSUNNY   90  72  55 N8        30.07F HX  96
$$

TNZ017-018-042-046-047-272100-
NORTHEAST TENNESSEE

CITY           SKY/WX    TMP DP  RH WIND       PRES   REMARKS
TRI CITIES     MOSUNNY   86  54  33 CALM      30.10F
ELIZABETHTON   CLEAR     84  55  37 VRB7      30.09F
$$

TNZ012-013-036-069-073-074-272100-
CENTRAL EAST TENNESSEE

CITY           SKY/WX    TMP DP  RH WIND       PRES   REMARKS
KNOXVILLE      PTSUNNY   86  60  41 N7        30.07F
OAK RIDGE      SUNNY     89  62  40 VRB3      30.09F
GATLINBURG     CLEAR     86  55  35 CALM      30.07F
$$

TNZ083-085-099-272100-
SOUTHEAST TENNESSEE

CITY           SKY/WX    TMP DP  RH WIND       PRES   REMARKS
CHATTANOOGA    MOSUNNY   90  55  30 NE10      30.06F
$$

SKY/WX REPORTED AS FAIR MEANS FEW OR NO CLOUDS BELOW
12 THOUSAND FEET.



USA.gov is the U.S. government's official web portal to all federal, state and local government web resources and services.